This is the latest recevied weather packets stored in our database for station/object AE0NK. If no packets are shown the sender has not sent any weather packets the latest 10 day(s).
| Time | Temp. | Humidity | Pressure | Rain* | Wind** | Luminosity | Snow |
|---|---|---|---|---|---|---|---|
| 1777757003 | 15.56° C | 32% | 1017.6 hPa | 0 mm | - | 626 W/m² | - |
| 1777756701 | 15.56° C | 30% | 1017.7 hPa | 0 mm | - | 638 W/m² | - |
| 1777756399 | 15.56° C | 27% | 1017.7 hPa | 0 mm | - | 645 W/m² | - |
| 1777756097 | 15.56° C | 28% | 1017.7 hPa | 0 mm | - | 661 W/m² | - |
| 1777755797 | 15.56° C | 29% | 1017.9 hPa | 0 mm | - | 675 W/m² | - |
| 1777755493 | 15.56° C | 30% | 1017.8 hPa | 0 mm | - | 687 W/m² | - |
| 1777755192 | 15° C | 31% | 1018.1 hPa | 0 mm | - | 700 W/m² | - |
| 1777754911 | 15° C | 28% | 1018.1 hPa | 0 mm | - | 708 W/m² | - |
| 1777754608 | 15.56° C | 30% | 1018.1 hPa | 0 mm | - | 722 W/m² | - |
| 1777754305 | 15.56° C | 28% | 1018.2 hPa | 0 mm | - | 737 W/m² | - |
| 1777754003 | 15.56° C | 31% | 1018.3 hPa | 0 mm | - | 754 W/m² | - |
| 1777753701 | 15.56° C | 30% | 1018.3 hPa | 0 mm | - | 766 W/m² | - |
| 1777753399 | 15° C | 30% | 1018.4 hPa | 0 mm | - | 780 W/m² | - |
| 1777752794 | 15° C | 30% | 1018.5 hPa | 0 mm | - | 802 W/m² | - |
| 1777752511 | 14.44° C | 30% | 1018.6 hPa | 0 mm | - | 812 W/m² | - |
| 1777752207 | 14.44° C | 29% | 1018.7 hPa | 0 mm | - | 114 W/m² | - |
| 1777751902 | 15.56° C | 28% | 1018.7 hPa | 0 mm | - | 870 W/m² | - |
| 1777751600 | 15° C | 28% | 1018.7 hPa | 0 mm | - | 849 W/m² | - |
| 1777751297 | 15° C | 31% | 1018.7 hPa | 0 mm | - | 858 W/m² | - |
| 1777750995 | 15° C | 34% | 1018.8 hPa | 0 mm | - | 879 W/m² | - |
| 1777750693 | 14.44° C | 34% | 1018.9 hPa | 0 mm | - | 928 W/m² | - |
| 1777750407 | 14.44° C | 30% | 1018.9 hPa | 0 mm | - | 895 W/m² | - |
| 1777750104 | 14.44° C | 30% | 1019 hPa | 0 mm | - | 888 W/m² | - |
| 1777749802 | 14.44° C | 34% | 1019 hPa | 0 mm | - | 911 W/m² | - |
| 1777749500 | 13.33° C | 31% | 1019.1 hPa | 0 mm | - | 221 W/m² | - |
* Rain latest hour (hover to see other rain measurements)
** Current wind speed in m/s (hover to see current wind gust speed)